This demonstration page uses our WeatherBlox Daily Observations layout. Learn more.

Left ArrowRight Arrow

Hourly Observations for April 8, 2020

Temp ( °F °C ) Dew Point ( °F °C ) Humidity (%) Winds ( mph kmh ) Pressure ( in mb ) Visibility ( mi km ) Precip ( " mm )
6:30 am 06:30 Partly Cloudy 66 19 61 16 83 83 W 10 17 29.70 1006 10 16 N/A
6:45 am 06:45 Partly Cloudy 66 19 61 16 83 83 W 10 17 29.70 1006 10 16 N/A
7:30 am 07:30 Cloudy 64 18 61 16 88 88 N N/A 29.72 1006 10 16 N/A
7:45 am 07:45 Cloudy 64 18 61 16 88 88 N N/A 29.72 1006 10 16 N/A
8:55 am 08:55 Cloudy 66 19 63 17 88 88 N N/A 29.73 1007 10 16 N/A
9:45 am 09:45 Cloudy 68 20 63 17 83 83 N N/A 29.73 1007 10 16 N/A
10:45 am 10:45 Cloudy 68 20 63 17 83 83 WNW 6 9 29.75 1008 10 16 N/A
11:20 am 11:20 Partly Cloudy 72 22 61 16 69 69 NW 8 13 29.75 1007 10 16 N/A
11:45 am 11:45 Partly Cloudy 73 23 61 16 65 65 W 12 19 29.76 1008 10 16 N/A
12:45 pm 12:45 Mostly Sunny 75 24 57 14 54 54 NW 7 11 29.74 1007 10 16 N/A
1:45 pm 13:45 Partly Cloudy 77 25 52 11 42 42 N 7 11 29.71 1006 10 16 N/A
2:45 pm 14:45 Mostly Sunny 77 25 45 7 32 32 WNW 7 11 29.69 1006 10 16 N/A
3:45 pm 15:45 Mostly Sunny 79 26 48 9 34 34 N 6 9 29.66 1004 10 16 N/A
4:45 pm 16:45 Mostly Sunny 81 27 48 9 32 32 SSE 5 7 29.63 1003 10 16 N/A
5:45 pm 17:45 Partly Cloudy 81 27 48 9 32 32 S 9 15 29.59 1002 10 16 N/A
6:45 pm 18:45 Mostly Sunny 81 27 46 8 30 30 WSW 7 11 29.54 1000 10 16 N/A
7:45 pm 19:45 Mostly Sunny 77 25 48 9 36 36 SSW 12 19 29.51 999 10 16 N/A
8:45 pm 20:45 Mostly Clear 72 22 50 10 47 47 S 9 15 29.48 998 10 16 N/A
9:30 pm 21:30 Cloudy with Thunderstorms 59 15 54 12 82 82 NW 32 52 29.72 1006 3 5 N/A
9:45 pm 21:45 Windy with Storms Likely 57 14 55 13 94 94 NW 23 37 29.70 1006 2 3 N/A

Powered by AerisWeather